sat.trackr.live / text

‹ back to catalog

STARLINK-37417

NORAD 68770 · 2026-086E

PAYLOAD ACTIVE UNKNOWN

§ Identity

Operator
Country
US
Launch date
2026-04-19
Launch site
AFWTR
Launch vehicle
Mass (kg)
RCS (m²)

Purposes: comms

External: N2YO · Heavens-Above · Gunter

§ Orbital elements

Epoch: 2026-09-20T01:13:23.896128Z

Period
93.91 min
Inclination
97.2849°
Eccentricity
0.0001076
Mean motion
15.33453937 rev/d
Perigee alt
464.8 km
Apogee alt
466.3 km
Semi-major
6,843.7 km
B*
3.4684e-4
RAAN
298.4470°
Arg perigee
107.7622°
Mean anomaly
252.3738°
Rev number
2,361

§ Raw data

STARLINK-374171 68770U 26086E   26263.05097102  .00011142  00000+0  34684-3 0  99992 68770  97.2849 298.4470 0001076 107.7622 252.3738 15.33453937 23617

JSON: /api/v1/satellites/68770 · /tle

For live sub-satellite position, see the globe view (requires WebGL).

§ Visibility from observer

Set your observer location to see the next 7 days of passes ≥ 10°. The values pass through the URL so the page stays shareable.

No JS? Fill the form by hand. The geolocation button needs JavaScript.